[[{"header":{"parameterUnit":"m.s-1","parameterCategory":1,"la1":30.2991,"la2":30.254,"lo1":-89.0895,"lo2":-89.0444,"dy":0.0017,"dx":0.0017,"nx":28,"ny":28,"refTime":"2024-07-25T21:00:00:Z","depth":0,"parameterNumber":2,"parameterNumberName":"U-component_of_WINDS"},"data":[0,0,0,0,0,0,0,0,0,0,0,0,0,0,0,0,0,0,0,0,0,0,0,0,0,0,0,0,0,0,0,0,0,0,0,0,0,0,0,0,0,0,0,0,0,0,0,0,0,0,0,0,0,0,0,0,0,0,-0.4151,-0.4151,0,-0.4156,-0.4156,-0.4156,-0.4188,-0.4188,-0.4189,-0.419,-0.4194,-0.4194,-0.4193,0,0,0,0,0,0,0,0,0,0,0,0,0,-0.4167,-0.4166,-0.4151,-0.4151,-0.4151,-0.4156,-0.4156,-0.4156,-0.4187,-0.4188,-0.4189,-0.419,-0.4194,-0.4194,-0.4193,0,0,0,0,0,0,0,0,0,0,0,0,0,-0.4164,-0.4166,-0.4151,-0.4167,-0.4169,-0.4156,-0.4156,-0.4156,-0.4187,-0.4188,-0.4189,-0.4191,-0.4195,-0.4194,-0.4193,-0.4164,0,0,-0.419,-0.419,0,0,0,0,0,0,0,0,-0.4165,-0.4164,-0.4165,-0.4166,-0.4168,-0.4172,-0.4163,-0.4159,-0.4187,-0.418,-0.419,-0.4191,-0.4186,-0.4186,-0.4184,-0.4165,-0.4165,-0.419,-0.4189,-0.4189,-0.4189,0,0,0,0,0,0,0,-0.4165,-0.4164,-0.4153,-0.4165,-0.4166,-0.4174,-0.4175,-0.4163,-0.4176,-0.4181,-0.4183,-0.4183,-0.4187,-0.4185,-0.4185,-0.4165,-0.419,-0.4189,-0.4189,-0.4188,-0.4122,-0.412,0,0,0,0,0,0,-0.4163,-0.4164,-0.4153,-0.4153,-0.4169,-0.4173,-0.4174,-0.417,-0.4177,-0.4179,-0.4182,-0.4185,-0.4186,-0.4186,-0.4185,-0.4152,-0.4189,-0.4188,-0.4188,-0.4123,-0.4121,-0.412,0,0,0,0,0,0,-0.4163,-0.4161,-0.4152,-0.4159,-0.4158,-0.4171,-0.4166,-0.4169,-0.4167,-0.4178,-0.418,-0.4178,-0.4187,-0.4186,-0.4169,-0.4153,-0.4188,-0.4187,-0.4124,-0.4122,-0.4121,-0.4086,0,0,0,0,0,0,-0.4163,-0.4161,-0.4151,-0.4158,-0.4158,-0.4137,-0.4165,-0.4168,-0.4166,-0.4169,-0.4174,-0.4176,-0.4188,-0.417,-0.4168,-0.4152,-0.4186,-0.4126,-0.4123,-0.4121,-0.4089,-0.4083,-0.4078,0,0,0,0,0,-0.4164,-0.4141,-0.415,-0.4149,-0.4145,-0.4136,-0.4136,-0.4149,-0.4164,-0.4154,-0.4161,-0.4176,-0.4154,-0.4168,-0.4166,-0.4149,-0.4127,-0.4124,-0.4121,-0.4091,-0.4084,-0.4079,0,0,0,0,0,0,-0.4131,-0.4142,-0.4153,-0.4132,-0.4133,-0.4141,-0.4129,-0.4142,-0.4138,-0.4142,-0.4158,-0.4159,-0.414,-0.4143,-0.4158,-0.4122,-0.4143,-0.414,-0.4121,-0.4115,-0.411,-0.4109,-0.4186,0,0,0,0,0,-0.4121,-0.4113,-0.4123,-0.4104,-0.4104,-0.4116,-0.4112,-0.4123,-0.4124,-0.4125,-0.413,-0.4131,-0.4124,-0.412,-0.4114,-0.4089,-0.409,-0.4076,-0.4071,-0.4067,-0.4064,-0.4051,-0.4044,-0.4111,-0.4111,-0.4111,0,0,-0.4101,-0.4107,-0.41,-0.4097,-0.4099,-0.409,-0.4116,-0.4105,-0.4099,-0.4123,-0.4108,-0.4112,-0.4113,-0.4092,-0.4083,-0.4094,-0.4046,-0.4063,-0.406,-0.4059,-0.4047,-0.4041,-0.4035,-0.4109,-0.4109,-0.411,0,0,-0.4061,-0.4064,-0.4048,-0.4049,-0.4052,-0.406,-0.4056,-0.4062,-0.4066,-0.405,-0.4069,-0.406,-0.4049,-0.4049,-0.4048,-0.4006,-0.402,-0.4003,-0.3977,-0.3964,-0.3958,-0.3954,-0.3939,-0.3933,-0.4,-0.4,-0.4,0,-0.4035,-0.4023,-0.4038,-0.4026,-0.4024,-0.4045,-0.4029,-0.4029,-0.403,-0.4028,-0.404,-0.4025,-0.4028,-0.4007,-0.3997,-0.3995,-0.3991,-0.4003,-0.3958,-0.3954,-0.3949,-0.3935,-0.393,-0.3998,-0.3998,-0.3999,-0.3999,0,-0.3992,-0.3982,-0.3969,-0.3969,-0.3965,-0.3951,-0.3964,-0.3958,-0.3968,-0.3975,-0.3959,-0.3963,-0.3958,-0.3954,-0.3964,-0.3934,-0.3941,-0.3955,-0.3977,-0.3941,-0.3928,-0.3923,-0.3995,-0.3996,-0.3997,-0.3997,0,0,-0.3931,-0.3939,-0.3934,-0.3934,-0.3938,-0.3931,-0.3917,-0.3913,-0.3908,-0.3907,-0.3896,-0.3885,-0.3898,-0.3897,-0.3907,-0.3895,-0.3862,-0.3911,-0.3911,-0.3902,-0.3829,-0.3818,-0.3812,-0.3871,-0.387,-0.3869,-0.3829,0,-0.3892,-0.387,-0.3883,-0.3858,-0.385,-0.387,-0.3858,-0.3859,-0.3864,-0.3857,-0.3863,-0.3855,-0.3873,-0.3873,-0.3862,-0.3868,-0.3847,-0.3871,-0.386,-0.386,-0.386,-0.3805,-0.3794,-0.3756,-0.3824,-0.3823,-0.3822,0,-0.3844,-0.3841,-0.3816,-0.3821,-0.3818,-0.3807,-0.3804,-0.3797,-0.3798,-0.3803,-0.3801,-0.3814,-0.38,-0.3821,-0.3803,-0.3819,-0.3815,-0.3817,-0.3816,-0.3816,-0.3839,-0.3804,-0.3744,-0.3739,-0.3815,-0.3815,-0.3816,0,-0.3802,-0.3792,-0.3776,-0.3775,-0.3781,-0.3773,-0.3775,-0.3777,-0.3773,-0.377,-0.3768,-0.3763,-0.3761,-0.3756,-0.3767,-0.3782,-0.3747,-0.3769,-0.3751,-0.375,-0.3743,-0.3743,-0.3682,-0.374,-0.374,-0.374,-0.374,0,-0.3758,-0.3742,-0.3758,-0.3748,-0.373,-0.3744,-0.3726,-0.373,-0.3732,-0.3722,-0.3739,-0.373,-0.3744,-0.3737,-0.3745,-0.3728,-0.3727,-0.373,-0.3733,-0.3729,-0.3729,-0.3727,-0.373,-0.3738,-0.3739,-0.3739,-0.3739,0,-0.3709,-0.3719,-0.3702,-0.3709,-0.371,-0.3697,-0.3702,-0.3693,-0.3699,-0.3687,-0.3685,-0.3695,-0.3687,-0.3697,-0.3689,-0.3695,-0.3672,-0.3678,-0.3672,-0.3674,-0.3655,-0.3657,-0.3591,-0.3583,-0.3645,-0.3645,-0.3644,0,-0.368,-0.3668,-0.3673,-0.3668,-0.3669,-0.3661,-0.3657,-0.367,-0.3666,-0.3666,-0.3656,-0.3649,-0.3645,-0.363,-0.3636,-0.3631,-0.3637,-0.3614,-0.3636,-0.3633,-0.3637,-0.3638,-0.3637,-0.361,-0.3609,-0.3609,-0.3608,0,-0.3628,-0.3633,-0.3628,-0.3623,-0.3618,-0.3616,-0.3614,-0.3609,-0.3622,-0.3616,-0.3608,-0.3604,-0.3596,-0.3589,-0.3585,-0.3586,-0.3599,-0.3601,-0.3597,-0.3593,-0.359,-0.3592,-0.366,-0.3603,-0.3603,-0.3604,-0.3604,-0.3604,-0.3588,-0.3579,-0.3581,-0.3573,-0.3574,-0.3571,-0.3563,-0.3568,-0.3562,-0.3556,-0.3564,-0.3554,-0.3554,-0.355,-0.355,-0.3542,-0.3551,-0.3545,-0.3543,-0.3541,-0.3539,-0.3591,-0.3541,-0.3541,-0.3541,-0.3541,-0.3541,0,-0.3537,-0.3539,-0.3533,-0.353,-0.3524,-0.3537,-0.3535,-0.353,-0.352,-0.352,-0.3515,-0.3505,-0.3497,-0.3503,-0.3497,-0.3489,-0.3495,-0.3487,-0.3488,-0.3488,-0.353,-0.3535,-0.3482,-0.3482,-0.3482,-0.3482,-0.3482,-0.3482,-0.351,-0.3494,-0.35,-0.3484,-0.3486,-0.3476,-0.3474,-0.3472,-0.3472,-0.346,-0.3454,-0.3458,-0.3459,-0.3453,-0.3447,-0.3449,-0.3446,-0.3436,-0.344,-0.3479,-0.3485,-0.3491,-0.3495,-0.3435,-0.3435,-0.3399,-0.3398,-0.3398]},{"header":{"parameterUnit":"m.s-1","parameterCategory":1,"la1":30.2991,"la2":30.254,"lo1":-89.0895,"lo2":-89.0444,"dy":0.0017,"dx":0.0017,"nx":28,"ny":28,"refTime":"2024-07-25T21:00:00:Z","depth":0,"parameterNumber":3,"parameterNumberName":"V-component_of_WINDS"},"data":[0,0,0,0,0,0,0,0,0,0,0,0,0,0,0,0,0,0,0,0,0,0,0,0,0,0,0,0,0,0,0,0,0,0,0,0,0,0,0,0,0,0,0,0,0,0,0,0,0,0,0,0,0,0,0,0,0,0,0.1152,0.1154,0,0.131,0.1312,0.1314,0.1335,0.1334,0.1332,0.1331,0.1492,0.1497,0.1503,0,0,0,0,0,0,0,0,0,0,0,0,0,0.0867,0.0872,0.1152,0.1154,0.1156,0.131,0.1312,0.1314,0.1336,0.1334,0.1332,0.133,0.149,0.1497,0.1504,0,0,0,0,0,0,0,0,0,0,0,0,0,0.1004,0.0874,0.1152,0.1185,0.119,0.1309,0.1312,0.1315,0.1336,0.1334,0.1332,0.1329,0.1488,0.1496,0.1505,0.1601,0,0,0.1531,0.1534,0,0,0,0,0,0,0,0,0.0997,0.1015,0.1178,0.1183,0.1189,0.1301,0.1271,0.1411,0.1337,0.1281,0.1331,0.1328,0.143,0.1443,0.1478,0.1609,0.1616,0.1531,0.1536,0.154,0.1542,0,0,0,0,0,0,0,0.0987,0.1008,0.1215,0.1181,0.1187,0.1192,0.1209,0.1297,0.1366,0.1285,0.1287,0.1306,0.1432,0.1469,0.1482,0.1618,0.1531,0.1539,0.1544,0.1547,0.1834,0.1837,0,0,0,0,0,0,0.0972,0.1,0.121,0.1219,0.1085,0.1199,0.1218,0.1267,0.1365,0.1378,0.1307,0.1306,0.1456,0.1472,0.1487,0.1606,0.154,0.1548,0.1553,0.1832,0.1835,0.1837,0,0,0,0,0,0,0.0965,0.099,0.1203,0.111,0.1138,0.1206,0.1261,0.1271,0.1308,0.1382,0.1394,0.1333,0.1455,0.1475,0.1572,0.1612,0.1552,0.156,0.1829,0.1833,0.1836,0.1844,0,0,0,0,0,0,0.0957,0.0988,0.1026,0.1111,0.1143,0.1286,0.1264,0.1276,0.1323,0.1323,0.1409,0.1421,0.1455,0.156,0.1581,0.1622,0.1566,0.1825,0.183,0.1835,0.1841,0.1848,0.1854,0,0,0,0,0,0.0947,0.1022,0.1028,0.1053,0.1192,0.1289,0.1307,0.1345,0.1326,0.1365,0.1411,0.1418,0.1604,0.1569,0.1593,0.1638,0.1823,0.1829,0.1835,0.1838,0.1847,0.1854,0,0,0,0,0,0,0.0941,0.1034,0.1041,0.1147,0.1209,0.1292,0.1342,0.1353,0.1422,0.1419,0.1463,0.1482,0.1576,0.1617,0.1577,0.1736,0.1712,0.1722,0.1706,0.1715,0.1721,0.1709,0.1573,0,0,0,0,0,0.0951,0.1023,0.11,0.1186,0.1217,0.1274,0.1317,0.1341,0.1408,0.1434,0.1488,0.1552,0.1625,0.1672,0.1743,0.1846,0.1864,0.1889,0.1895,0.19,0.1909,0.1965,0.1976,0.1856,0.1856,0.1856,0,0,0.0975,0.1035,0.1077,0.1186,0.1237,0.1309,0.1296,0.1373,0.1427,0.1446,0.1541,0.1582,0.1656,0.1756,0.1803,0.1793,0.1946,0.1908,0.1911,0.1917,0.1972,0.1983,0.1993,0.186,0.1859,0.1859,0,0,0.1054,0.1107,0.1183,0.1234,0.1312,0.1349,0.1367,0.1448,0.1476,0.1572,0.1587,0.165,0.1775,0.1827,0.187,0.1965,0.1973,0.1987,0.2022,0.2075,0.2085,0.2093,0.2126,0.2137,0.1996,0.1996,0.1996,0,0.1073,0.1183,0.1221,0.1297,0.1344,0.1364,0.144,0.1488,0.1585,0.1616,0.1604,0.1759,0.1811,0.1922,0.1945,0.1979,0.2,0.1978,0.208,0.2089,0.2098,0.213,0.2142,0.1997,0.1997,0.1996,0.1996,0,0.1201,0.1277,0.1329,0.1421,0.1474,0.155,0.1598,0.1647,0.1665,0.1703,0.1798,0.1861,0.1944,0.1972,0.1991,0.2085,0.2076,0.2071,0.2048,0.211,0.214,0.2153,0.1998,0.1998,0.1998,0.1997,0,0,0.1283,0.1394,0.1412,0.1453,0.1539,0.1598,0.1674,0.1755,0.1795,0.186,0.1924,0.2028,0.2023,0.2072,0.2096,0.2143,0.2213,0.2132,0.2134,0.2144,0.2319,0.2322,0.2336,0.2218,0.2221,0.2223,0.2312,0,0.1371,0.1508,0.1543,0.1659,0.1728,0.1747,0.1813,0.1872,0.1909,0.1972,0.2012,0.2085,0.2073,0.2102,0.215,0.2194,0.2248,0.2188,0.2277,0.228,0.2258,0.2352,0.2356,0.2438,0.2325,0.2327,0.2328,0,0.1494,0.1561,0.1683,0.1758,0.1788,0.1847,0.1923,0.1984,0.205,0.2074,0.2126,0.2145,0.2224,0.2196,0.2303,0.2261,0.2299,0.2326,0.233,0.234,0.2308,0.2364,0.2465,0.2477,0.2348,0.2346,0.2345,0,0.1539,0.166,0.1749,0.1784,0.1874,0.1914,0.1953,0.2018,0.2064,0.213,0.2159,0.2233,0.2274,0.233,0.2368,0.2344,0.2472,0.2447,0.2492,0.2491,0.2519,0.2517,0.2627,0.2544,0.2543,0.2543,0.2543,0,0.1635,0.1709,0.177,0.1825,0.1907,0.1946,0.2027,0.2067,0.2123,0.2185,0.2205,0.2262,0.2309,0.2372,0.2402,0.2486,0.2504,0.2524,0.2531,0.2522,0.252,0.2548,0.2543,0.2546,0.2546,0.2545,0.2544,0,0.17,0.1745,0.1842,0.1919,0.194,0.1997,0.2062,0.2115,0.2151,0.2228,0.2249,0.2306,0.2381,0.2424,0.2519,0.2539,0.2631,0.2636,0.2609,0.2612,0.2654,0.2649,0.2786,0.2806,0.271,0.271,0.2711,0,0.1758,0.1815,0.1897,0.194,0.198,0.2048,0.2094,0.2134,0.2181,0.226,0.2303,0.2379,0.2442,0.256,0.261,0.2681,0.2688,0.2731,0.2699,0.2687,0.2687,0.2683,0.2688,0.2736,0.2737,0.2738,0.2738,0,0.1856,0.1874,0.194,0.2014,0.2068,0.2128,0.2187,0.2221,0.227,0.2322,0.2398,0.2447,0.2543,0.2617,0.2693,0.2732,0.2743,0.2748,0.2762,0.2753,0.2735,0.2745,0.2623,0.2745,0.2744,0.2744,0.2743,0.2743,0.1919,0.197,0.2035,0.2107,0.2156,0.221,0.2263,0.2305,0.237,0.2451,0.247,0.255,0.2613,0.2715,0.2756,0.2818,0.2811,0.2832,0.2837,0.2841,0.2842,0.2725,0.2832,0.2832,0.2832,0.2832,0.2832,0,0.2017,0.2059,0.2125,0.2207,0.2263,0.2268,0.2333,0.238,0.2451,0.2508,0.2569,0.2656,0.2728,0.2782,0.2855,0.2894,0.2901,0.2912,0.291,0.2918,0.2845,0.2825,0.2905,0.2905,0.2905,0.2905,0.2905,0.2905,0.2075,0.2161,0.2186,0.2296,0.2337,0.2416,0.2453,0.2502,0.2548,0.2644,0.2704,0.2739,0.2794,0.2871,0.2936,0.295,0.2976,0.2986,0.3001,0.2931,0.2924,0.2916,0.2898,0.2991,0.2992,0.3068,0.3069,0.307]}]]